Content
SEND FEEDBACK

Daily
Averages
Monthly
Summary
United States of America

SAN FRANCISCO, CALIFORNIA


Home > North America > United States > California
Elevation: 128 feet     Latitude: 37 46N     Longitude: 122 26W

WEATHER
 
SELECT A DAY
Number of Records: 184,955;   Date Range: 1/1/95 - 8/30/14
 
SHARE

PRINT THIS DATA

[ ← Previous Day ]
WEATHER ALMANAC - SEPTEMBER 18, 2013
[ Next Day → ]
[ °C ]   °F
Weather ElementAverageHighLow
Temperature63.2 °F73.9 °F (12:56 pm)54 °F (5:56 am)
Dewpoint49.3 °F55 °F (8:56 am)46.9 °F (5:56 am)
Humidity62.3 %80 % (3:56 am)41 % (1:19 pm)
Barometer29.88 in29.92 in (8:56 am)29.85 in (3:56 pm)
Wind Speed10.3 mph25.3 mph (3:56 pm)
Weather ElementAverage
Visibility10 mi
Wind DirectionSSW (202.1 °)

Weather ElementTotal
Precipitation---
Heating Degree Days1.1 (Base 65)
Growing Degree Days14 (Base 50)
Averaged from 24 records on September 18, 2013
WEATHER CONDITIONS BREAKOUT
WIND DIRECTION BREAKOUT
WEATHER BY HOUR - SEPTEMBER 18, 2013
[ °C ]   °F
Local TimeTemperatureDewpointHumidityBarometerVisibilityWind DirectionWind SpeedGust SpeedPrecipitationEventsConditions
1:56 AM57.0 °F48.9 °F74 %29.88 in10.0 miWNW (290°)8.1 mphClear
2:56 AM55.9 °F48.9 °F77 %29.88 in10.0 miSW (220°)6.9 mphClear
3:56 AM55.0 °F48.9 °F80 %29.88 in10.0 miWest (270°)4.6 mphClear
4:56 AM55.9 °F48.0 °F75 %29.88 in10.0 miWest (260°)5.8 mphClear
5:56 AM54.0 °F46.9 °F77 %29.89 in10.0 miWSW (240°)3.5 mphClear
6:56 AM55.9 °F48.9 °F77 %29.90 in10.0 miCalmScattered Clouds
7:56 AM59.0 °F52.0 °F78 %29.91 in10.0 miCalmPartly Cloudy
8:56 AM63.0 °F55.0 °F75 %29.92 in10.0 miCalmPartly Cloudy
9:56 AM66.0 °F54.0 °F65 %29.91 in10.0 miENE (70°)3.5 mphPartly Cloudy
10:56 AM68.0 °F54.0 °F61 %29.91 in10.0 miEast (90°)4.6 mphPartly Cloudy
11:56 AM72.0 °F50.0 °F46 %29.90 in10.0 miCalmClear
12:56 PM73.9 °F52.0 °F46 %29.89 in10.0 miVariable5.8 mphClear
1:19 PM73.4 °F48.2 °F41 %29.89 in10.0 miWNW (290°)18.4 mphClear
1:56 PM73.0 °F48.9 °F42 %29.88 in10.0 miWNW (290°)15.0 mphPartly Cloudy
2:56 PM71.1 °F48.0 °F44 %29.86 in10.0 miWest (280°)23.0 mphScattered Clouds
3:56 PM72.0 °F46.9 °F41 %29.85 in10.0 miWest (280°)25.3 mphScattered Clouds
4:56 PM70.0 °F46.9 °F44 %29.85 in10.0 miWest (270°)21.9 mphScattered Clouds
5:56 PM64.9 °F48.0 °F54 %29.85 in10.0 miWest (280°)24.2 mphPartly Cloudy
6:56 PM62.1 °F48.9 °F62 %29.85 in10.0 miWest (270°)21.9 mphClear
7:56 PM61.0 °F48.0 °F62 %29.85 in10.0 miWest (280°)17.3 mphClear
8:56 PM60.1 °F48.0 °F64 %29.86 in10.0 miWNW (300°)10.4 mphClear
9:56 PM59.0 °F48.0 °F67 %29.86 in10.0 miWNW (290°)8.1 mphClear
10:56 PM57.9 °F48.9 °F72 %29.86 in10.0 miWNW (290°)9.2 mphClear
11:56 PM57.0 °F48.0 °F72 %29.86 in10.0 miWNW (290°)9.2 mphClear
Hourly data recorded from KSFO, located miles away from San Francisco, California







STORIES FROM OUR PARTNERS